Overview Statistics Trail Chart Weather Telemetry Raw packets
 

This is the latest recevied weather packets stored in our database for station/object LU3HGB-WX. If no packets are shown the sender has not sent any weather packets the latest 10 day(s).

<< 91 92 93 94 95 96 97 >>
Time Temp. Humidity Pressure Rain* Wind** Luminosity Snow
1788013960 18.33° C 46% 1013 hPa 0 mm - 748 W/m² -
1788013660 18.33° C 47% 1013 hPa 0 mm - 739 W/m² -
1788013359 18.33° C 46% 1014 hPa 0 mm - 750 W/m² -
1788013060 18.33° C 47% 1014 hPa 0 mm - 730 W/m² -
1788012759 18.33° C 48% 1014 hPa 0 mm - 722 W/m² -
1788012459 17.78° C 48% 1014 hPa 0 mm - 711 W/m² -
1788012160 17.78° C 49% 1013 hPa 0 mm - 747 W/m² -
1788011860 17.22° C 52% 1013 hPa 0 mm - 792 W/m² -
1788011559 17.22° C 52% 1014 hPa 0 mm - 307 W/m² -
1788011259 17.22° C 50% 1013 hPa 0 mm - 352 W/m² -
1788010959 17.22° C 50% 1013 hPa 0 mm - 640 W/m² -
1788010660 17.22° C 50% 1014 hPa 0 mm - 535 W/m² -
1788010359 16.67° C 50% 1014 hPa 0 mm - 549 W/m² -
1788010059 16.67° C 49% 1014 hPa 0 mm - 529 W/m² -
1788009759 16.67° C 52% 1014 hPa 0 mm - 509 W/m² -
1788009460 16.67° C 51% 1014 hPa 0 mm - 485 W/m² -
1788009160 16.11° C 52% 1014 hPa 0 mm - 468 W/m² -
1788008859 16.11° C 51% 1014 hPa 0 mm - 451 W/m² -
1788008560 15.56° C 53% 1014 hPa 0 mm - 431 W/m² -
1788008259 15.56° C 54% 1013 hPa 0 mm - 410 W/m² -
1788007960 15.56° C 54% 1013 hPa 0 mm - 391 W/m² -
1788007660 15° C 55% 1014 hPa 0 mm - 369 W/m² -
1788007359 15° C 56% 1013 hPa 0 mm - 352 W/m² -
1788007060 15° C 55% 1013 hPa 0 mm - 331 W/m² -
1788006759 15° C 55% 1013 hPa 0 mm - 311 W/m² -

* Rain latest hour (hover to see other rain measurements)
** Current wind speed in m/s (hover to see current wind gust speed)